Regional Weather Roundup
Issued by NWS

Home | Current Version | Previous Version | Graphics & Text | Print | Product List | Glossary On
Versions: 1 2 3 4 5 6 7 8 9 10 11 12 13 14 15 16 17 18 19 20 21 22 23 24 25 26 27 28 29 30 31 32 33 34 35 36 37 38 39 40 41 42 43 44 45 46 47 48 49 50
000
ASUS43 KFSD 300302
RWRSD

WEATHER ROUNDUP FOR SOUTH DAKOTA
NATIONAL WEATHER SERVICE SIOUX FALLS SD
1000 PM CDT TUE JUL 29 2014

NOTE: "FAIR" INDICATES FEW OR NO CLOUDS BELOW 12,000 FEET WITH NO
SIGNIFICANT WEATHER AND/OR OBSTRUCTIONS TO VISIBILITY.


SDZ001>005-009-010-012>017-300400-
NORTHWEST AND NORTH CENTRAL SOUTH DAKOTA

CITY           SKY/WX    TMP DP  RH WIND       PRES   REMARKS
BUFFALO          N/A     71  51  49 S6        30.11S
FAITH            N/A     66  53  63 S10       30.16R
MOBRIDGE         N/A     69  56  62 E9        30.12R
$$

SDZ012>016-024>037-041>051-057-063-072>074-300400-
SOUTHWEST AND SOUTH CENTRAL SOUTH DAKOTA

CITY           SKY/WX    TMP DP  RH WIND       PRES   REMARKS
RAPID CTY ARPT MOCLDY    63  55  75 SW7       30.21F
PIERRE         PTCLDY    68  54  60 NE5       30.13R
CUSTER         CLOUDY    55  47  74 CALM      30.33S
ELLSWORTH AFB  PTCLDY    64  54  68 SW8       30.21F
PHILIP         PTCLDY    70  49  47 S7        30.16R
PINE RIDGE     MOCLDY    60  54  80 NE6       30.22S
WINNER         FAIR      70  50  49 SE5       30.15R
$$

SDZ004>011-016>023-039-040-300400-
NORTHEAST SOUTH DAKOTA

CITY           SKY/WX    TMP DP  RH WIND       PRES   REMARKS
ABERDEEN       CLEAR     58  55  90 CALM      30.13R
WATERTOWN      CLEAR     64  53  67 CALM      30.13R
SISSETON         N/A     61  56  83 W3        30.10R
$$

SDZ017-020-022-023-036>040-048>070-300400-
SOUTHEAST SOUTH DAKOTA

CITY           SKY/WX    TMP DP  RH WIND       PRES   REMARKS
SIOUX FALLS    PTCLDY    64  54  69 CALM      30.13R
HURON          CLEAR     63  55  75 NE3       30.12R
CHAMBERLAIN    PTCLDY    67  53  58 E3        30.14R
MITCHELL       CLEAR     68  54  60 CALM      30.13R
YANKTON        CLEAR     64  55  72 CALM      30.13S
$$

ABBREVIATIONS USED IN REMARKS
   TC - TEMPERATURE IN CELSIUS
  WCI - WIND CHILL INDEX
   HX - HEAT INDEX
  VSB - VISIBILITY



USA.gov is the U.S. government's official web portal to all federal, state and local government web resources and services.